When you browse on this site, cookies collect data to enhance your experience and personalize the content and advertising you see.
Visit our Privacy Policy to learn more. By continuing to use the site, you agree to this use of cookies and data.
  • In Sweden
  • List of Countries
  • For 7 days
  • Water Temperature
  • Weather Map
  • Weather Widgets
  • user-avatar
    Login

    Hourly Weather South Holland

    Today, 2 June, Tuesday

    Time Temperature Precipitation Wind Pressure Humidity
    00:00 +20°C° 0 mm 5 mps 745 mmHg 62%
    01:00 +20°C° 0.1 mm 5 mps 744 mmHg 63%
    02:00 +19°C° 0.1 mm 5 mps 744 mmHg 65%
    03:00 +19°C° 0.1 mm 6 mps 744 mmHg 67%
    04:00 +20°C° 0 mm 5 mps 744 mmHg 69%
    05:00 +20°C° 0 mm 5 mps 744 mmHg 72%
    06:00 +21°C° 0 mm 5 mps 744 mmHg 74%
    07:00 +22°C° 0 mm 5 mps 744 mmHg 72%
    08:00 +25°C° 0 mm 5 mps 744 mmHg 70%
    09:00 +26°C° 0 mm 5 mps 743 mmHg 68%
    10:00 +28°C° 0 mm 5 mps 743 mmHg 65%
    11:00 +29°C° 0 mm 5 mps 743 mmHg 63%
    12:00 +30°C° 0 mm 5 mps 743 mmHg 60%
    13:00 +32°C° 0 mm 6 mps 743 mmHg 60%
    14:00 +32°C° 0 mm 6 mps 742 mmHg 59%
    15:00 +33°C° 0 mm 6 mps 742 mmHg 59%
    16:00 +32°C° 0 mm 6 mps 742 mmHg 62%
    17:00 +30°C° 0 mm 6 mps 742 mmHg 66%
    18:00 +30°C° 0 mm 5 mps 742 mmHg 70%
    19:00 +29°C° 0 mm 5 mps 742 mmHg 74%
    20:00 +28°C° 0 mm 5 mps 741 mmHg 79%
    21:00 +27°C° 0 mm 5 mps 741 mmHg 83%
    22:00 +26°C° 0 mm 5 mps 741 mmHg 84%
    23:00 +26°C° 0 mm 5 mps 742 mmHg 85%

    Tomorrow, 3 June, Wednesday

    Time Temperature Precipitation Wind Pressure Humidity
    00:00 +25°C° 0 mm 5 mps 742 mmHg 86%
    01:00 +25°C° 0 mm 5 mps 741 mmHg 87%
    02:00 +23°C° 0 mm 5 mps 741 mmHg 88%
    03:00 +23°C° 0 mm 5 mps 741 mmHg 89%
    04:00 +23°C° 0.1 mm 5 mps 741 mmHg 89%
    05:00 +23°C° 0.1 mm 5 mps 741 mmHg 89%
    06:00 +23°C° 0.1 mm 4 mps 740 mmHg 89%
    07:00 +25°C° 0.2 mm 4 mps 740 mmHg 87%
    08:00 +25°C° 0.2 mm 3 mps 740 mmHg 85%
    09:00 +25°C° 0.2 mm 3 mps 740 mmHg 83%
    10:00 +27°C° 0.4 mm 3 mps 740 mmHg 76%
    11:00 +28°C° 0.4 mm 2 mps 740 mmHg 69%
    12:00 +29°C° 0.4 mm 2 mps 741 mmHg 62%
    13:00 +29°C° 1 mm 2 mps 740 mmHg 63%
    14:00 +28°C° 1 mm 2 mps 740 mmHg 64%
    15:00 +28°C° 1 mm 2 mps 739 mmHg 66%
    16:00 +28°C° 0.5 mm 2 mps 739 mmHg 66%
    17:00 +27°C° 0.5 mm 2 mps 739 mmHg 66%
    18:00 +26°C° 0.5 mm 3 mps 739 mmHg 67%
    19:00 +25°C° 0 mm 2 mps 739 mmHg 67%
    20:00 +24°C° 0 mm 2 mps 739 mmHg 68%
    21:00 +23°C° 0 mm 1 mps 739 mmHg 69%
    22:00 +23°C° 0 mm 1 mps 739 mmHg 67%
    23:00 +22°C° 0 mm 1 mps 739 mmHg 65%

    Day after tomorrow, 4 June, Thursday

    Time Temperature Precipitation Wind Pressure Humidity
    00:00 +22°C° 0 mm 1 mps 739 mmHg 63%
    01:00 +21°C° 0 mm 1 mps 739 mmHg 63%
    02:00 +21°C° 0 mm 1 mps 739 mmHg 63%
    03:00 +19°C° 0 mm 0 mps 739 mmHg 62%
    04:00 +19°C° 0 mm 0 mps 740 mmHg 62%
    05:00 +22°C° 0 mm 1 mps 740 mmHg 61%
    06:00 +22°C° 0 mm 1 mps 740 mmHg 61%
    07:00 +24°C° 0 mm 1 mps 740 mmHg 56%
    08:00 +24°C° 0 mm 0 mps 740 mmHg 51%
    09:00 +26°C° 0 mm 0 mps 741 mmHg 46%
    10:00 +29°C° 0 mm 1 mps 741 mmHg 44%
    11:00 +30°C° 0 mm 1 mps 741 mmHg 41%
    12:00 +31°C° 0 mm 1 mps 741 mmHg 39%
    13:00 +31°C° 0 mm 2 mps 740 mmHg 39%
    14:00 +31°C° 0 mm 2 mps 740 mmHg 40%
    15:00 +31°C° 0 mm 2 mps 740 mmHg 40%
    16:00 +30°C° 0 mm 2 mps 740 mmHg 43%
    17:00 +30°C° 0 mm 2 mps 740 mmHg 46%
    18:00 +29°C° 0 mm 2 mps 740 mmHg 49%
    19:00 +28°C° 0 mm 1 mps 740 mmHg 51%
    20:00 +27°C° 0 mm 1 mps 740 mmHg 54%
    21:00 +24°C° 0 mm 0 mps 741 mmHg 57%
    22:00 +25°C° 0 mm 1 mps 741 mmHg 58%
    23:00 +25°C° 0 mm 1 mps 740 mmHg 60%

    5 June, Friday

    Time Temperature Precipitation Wind Pressure Humidity
    00:00 +25°C° 0 mm 2 mps 740 mmHg 62%
    01:00 +24°C° 0 mm 2 mps 740 mmHg 65%
    02:00 +24°C° 0 mm 2 mps 740 mmHg 68%
    03:00 +22°C° 0 mm 3 mps 740 mmHg 71%
    04:00 +22°C° 0 mm 3 mps 740 mmHg 72%
    05:00 +24°C° 0 mm 3 mps 740 mmHg 74%
    06:00 +24°C° 0 mm 3 mps 740 mmHg 76%
    07:00 +25°C° 0.7 mm 3 mps 740 mmHg 74%
    08:00 +27°C° 0.7 mm 3 mps 741 mmHg 72%
    09:00 +28°C° 0.7 mm 4 mps 741 mmHg 70%
    10:00 +30°C° 0.1 mm 4 mps 741 mmHg 63%
    11:00 +32°C° 0.1 mm 4 mps 741 mmHg 56%
    12:00 +34°C° 0.1 mm 4 mps 741 mmHg 49%
    13:00 +34°C° 0 mm 4 mps 741 mmHg 49%
    14:00 +33°C° 0 mm 4 mps 741 mmHg 50%
    15:00 +33°C° 0 mm 4 mps 741 mmHg 51%
    16:00 +30°C° 0.4 mm 3 mps 741 mmHg 55%
    17:00 +29°C° 0.4 mm 3 mps 741 mmHg 59%
    18:00 +27°C° 0.4 mm 3 mps 741 mmHg 63%
    19:00 +26°C° 0 mm 2 mps 741 mmHg 67%
    20:00 +25°C° 0 mm 2 mps 742 mmHg 70%
    21:00 +24°C° 0 mm 2 mps 742 mmHg 74%
    22:00 +23°C° 0 mm 2 mps 742 mmHg 74%
    23:00 +23°C° 0 mm 1 mps 742 mmHg 74%

    6 June, Saturday

    Time Temperature Precipitation Wind Pressure Humidity
    00:00 +23°C° 0 mm 1 mps 742 mmHg 74%
    01:00 +23°C° 0 mm 2 mps 743 mmHg 72%
    02:00 +23°C° 0 mm 2 mps 743 mmHg 69%
    03:00 +21°C° 0 mm 3 mps 743 mmHg 66%
    04:00 +21°C° 0 mm 3 mps 743 mmHg 64%
    05:00 +21°C° 0 mm 3 mps 744 mmHg 61%
    06:00 +20°C° 0 mm 4 mps 744 mmHg 58%
    07:00 +21°C° 0 mm 4 mps 744 mmHg 55%
    08:00 +22°C° 0 mm 4 mps 744 mmHg 52%
    09:00 +22°C° 0 mm 4 mps 744 mmHg 49%
    10:00 +23°C° 0 mm 4 mps 745 mmHg 47%
    11:00 +23°C° 0 mm 4 mps 745 mmHg 44%
    12:00 +25°C° 0 mm 4 mps 745 mmHg 42%
    13:00 +23°C° 0 mm 4 mps 745 mmHg 43%
    14:00 +23°C° 0 mm 4 mps 745 mmHg 44%
    15:00 +23°C° 0 mm 5 mps 745 mmHg 45%
    16:00 +22°C° 0 mm 5 mps 745 mmHg 50%
    17:00 +21°C° 0 mm 5 mps 745 mmHg 54%
    18:00 +20°C° 0 mm 4 mps 745 mmHg 59%
    19:00 +19°C° 0 mm 4 mps 745 mmHg 62%
    20:00 +18°C° 0 mm 4 mps 745 mmHg 66%
    21:00 +17°C° 0 mm 4 mps 745 mmHg 69%
    22:00 +17°C° 0 mm 3 mps 745 mmHg 70%
    23:00 +16°C° 0 mm 3 mps 745 mmHg 71%

    7 June, Sunday

    Time Temperature Precipitation Wind Pressure Humidity
    00:00 +16°C° 0 mm 3 mps 745 mmHg 71%
    01:00 +16°C° 0 mm 3 mps 745 mmHg 74%
    02:00 +14°C° 0 mm 3 mps 745 mmHg 77%
    03:00 +14°C° 0 mm 3 mps 745 mmHg 80%
    04:00 +15°C° 0 mm 2 mps 746 mmHg 80%
    05:00 +16°C° 0 mm 2 mps 746 mmHg 79%
    06:00 +16°C° 0 mm 2 mps 746 mmHg 79%
    07:00 +18°C° 0 mm 2 mps 746 mmHg 74%
    08:00 +19°C° 0 mm 3 mps 746 mmHg 68%
    09:00 +21°C° 0 mm 3 mps 746 mmHg 63%
    10:00 +22°C° 0 mm 3 mps 746 mmHg 59%
    11:00 +24°C° 0 mm 3 mps 746 mmHg 55%
    12:00 +26°C° 0 mm 3 mps 746 mmHg 51%
    13:00 +26°C° 0 mm 3 mps 746 mmHg 50%
    14:00 +26°C° 0 mm 4 mps 746 mmHg 50%
    15:00 +26°C° 0 mm 4 mps 745 mmHg 50%
    16:00 +25°C° 0 mm 4 mps 745 mmHg 54%
    17:00 +25°C° 0 mm 4 mps 745 mmHg 57%
    18:00 +23°C° 0 mm 4 mps 745 mmHg 61%
    19:00 +22°C° 0 mm 4 mps 745 mmHg 62%
    20:00 +21°C° 0 mm 3 mps 745 mmHg 64%
    21:00 +21°C° 0 mm 3 mps 746 mmHg 65%
    22:00 +20°C° 0 mm 3 mps 746 mmHg 67%
    23:00 +20°C° 0 mm 4 mps 746 mmHg 68%
    Show more